Weather History for PAGY - August, 2013

Change the Weather History Date:

Thursday, August 15, 2013

  Actual Average Record
Temperature  
Mean Temperature 62 °F -  
Max Temperature 72 °F 62 °F 88 °F (2004)
Min Temperature 53 °F 48 °F 40 °F (1984)
Degree Days  
Heating Degree Days 2    
Growing Degree Days 12 (Base 50)    
Moisture  
Dew Point 53 °F    
Average Humidity 77    
Maximum Humidity 93    
Minimum Humidity 55    
Precipitation  
Precipitation 0.00 in - - ()
Sea Level Pressure  
Sea Level Pressure 29.79 in    
Wind  
Wind Speed 5 mph (SW)    
Max Wind Speed 23 mph    
Max Gust Speed 31 mph    
Visibility 10 miles    
Events      
Averages and records for this station are not official NWS values.
T = Trace of Precipitation, MM = Missing Value Source: NWS Daily Summary

Daily Weather History Graph

Daily Weather History Graph

Search for Another Location

Airport or City:

Trip Planner

Search our weather history database for the weather conditions in past years. The results will help you decide how hot, cold, wet, or windy it might be!

Date:

Astronomy

Aug. 15, 2013 Rise Set
Actual Time 5:19 AM AKDT 8:50 PM AKDT
Civil Twilight 4:29 AM AKDT 9:40 PM AKDT
Nautical Twilight 3:16 AM AKDT 10:51 PM AKDT
Astronomical Twilight 1:38 AM AKDT 12:33 AM AKDT
Moon 4:46 PM AKDT (8/15) 11:59 PM AKDT (8/15)
Length of Visible Light 17h 10m
Length of Day
15h 31m
Waxing Gibbous, 66% of the Moon is Illuminated
Aug 15
Waxing Gibbous
Aug 20
Full
Aug 28
Last Quarter
Sep 5
New
Sep 12
First Quarter

Hourly Weather History & Observations

Time (AKDT) Temp. Dew Point Humidity Pressure Visibility Wind Dir Wind Speed Gust Speed Precip Events Conditions
12:53 AM 57.0 °F 52.0 °F 83% 29.83 in 10.0 mi Calm Calm - N/A   Clear
1:53 AM 55.9 °F 51.1 °F 84% 29.83 in 10.0 mi Calm Calm - N/A   Clear
2:53 AM 54.0 °F 51.1 °F 90% 29.83 in 10.0 mi NE 4.6 mph - N/A   Clear
3:53 AM 54.0 °F 51.1 °F 90% 29.84 in 10.0 mi Calm Calm - N/A   Clear
4:53 AM 54.0 °F 51.1 °F 90% 29.83 in 10.0 mi Calm Calm - N/A   Clear
5:53 AM 53.1 °F 50.0 °F 89% 29.81 in 10.0 mi NE 3.5 mph - N/A   Clear
6:53 AM 53.1 °F 51.1 °F 93% 29.82 in 10.0 mi Calm Calm - N/A   Clear
7:53 AM 54.0 °F 51.1 °F 90% 29.81 in 10.0 mi NNE 4.6 mph - N/A   Clear
8:53 AM 55.0 °F 51.1 °F 86% 29.81 in 10.0 mi Calm Calm - N/A   Clear
9:53 AM 55.0 °F 51.1 °F 86% 29.80 in 10.0 mi SW 4.6 mph - N/A   Clear
10:53 AM 57.0 °F 52.0 °F 83% 29.79 in 10.0 mi SW 4.6 mph - N/A   Scattered Clouds
11:53 AM 59.0 °F 52.0 °F 78% 29.78 in 10.0 mi WSW 4.6 mph - N/A   Clear
12:53 PM 59.0 °F 52.0 °F 78% 29.78 in 10.0 mi WSW 10.4 mph - N/A   Clear
1:53 PM 60.1 °F 53.1 °F 78% 29.77 in 10.0 mi WSW 6.9 mph - 0.00 in   Mostly Cloudy
2:53 PM 66.9 °F 53.1 °F 61% 29.75 in 10.0 mi Calm Calm - N/A   Clear
3:53 PM 63.0 °F 53.1 °F 70% 29.72 in 10.0 mi SW 17.3 mph - N/A   Clear
4:53 PM 66.0 °F 54.0 °F 65% 29.73 in 10.0 mi SW 19.6 mph 31.1 mph N/A   Clear
5:53 PM 72.0 °F 55.0 °F 55% 29.73 in 10.0 mi SSW 23.0 mph 31.1 mph N/A   Clear
6:53 PM 71.1 °F 55.0 °F 57% 29.74 in 10.0 mi SSW 18.4 mph 25.3 mph N/A   Partly Cloudy
7:53 PM 69.1 °F 54.0 °F 58% 29.75 in 10.0 mi SSW 18.4 mph 24.2 mph N/A   Overcast
8:53 PM 66.9 °F 54.0 °F 63% 29.78 in 10.0 mi SSW 19.6 mph 25.3 mph N/A   Overcast
9:53 PM 66.0 °F 55.0 °F 68% 29.79 in 10.0 mi SSW 19.6 mph 27.6 mph N/A   Overcast
10:53 PM 64.0 °F 55.9 °F 75% 29.80 in 10.0 mi SSW 13.8 mph 23.0 mph N/A   Overcast
11:53 PM 62.1 °F 55.0 °F 78% 29.81 in 10.0 mi SSW 15.0 mph - N/A   Overcast